User: anonymous   Login
Location: Drayton Valley
(53.2170°N, 114.9830°W)
Time: 10:33:15
(UTC-06:00)
Language:

MOZ.5/SAFIR/RUBIN 5/SL-8 - Orbit

View from above orbital plane
View from above orbital plane
View from above satellite
View from above satellite

Ground track
Ground track

The orbit data is extracted from the following two-line orbital elements,

1 28898U 05043G   16241.16749198  .00000057  00000-0  21006-4 0  9991
2 28898  97.8884  38.3729 0020531  32.8031 327.4440 14.60120390577077
Epoch (UTC): 28 August 2016 04:01:11
Eccentricity: 0.0020531
inclination: 97.8884°
perigee height: 678 km
apogee height: 707 km
right ascension of ascending node: 38.3729°
argument of perigee: 32.8031°
revolutions per day: 14.60120390
mean anomaly at epoch: 327.4440°
orbit number at epoch: 57707

The dashed part of the orbit path shows where the satellite is in the earth's shadow,  

DLR